W3SN-13 Weather Reports


Display with metric or nautical units.
time (UTC)temp
F
wind
direction
speed
MPH
gust
MPH
rain 1hr
in
rain 24hr
in
rain mn
in
humidity
%
barometer
mb
20260902105243 58 33 1.0 1.0 0.00 0.00 0.00 72 1017.0
20260902104242 59 173 2.0 2.0 0.00 0.00 0.00 72 1017.0
20260902103240 59 248 1.0 1.0 0.00 0.00 0.00 72 1017.0
20260902102239 59 34 1.0 2.0 0.00 0.00 0.00 74 1017.1
20260902101238 59 310 1.0 2.0 0.00 0.00 0.00 73 1017.1
20260902100236 59 341 1.0 1.0 0.00 0.00 0.00 74 1017.1
20260902095235 59 8 1.0 2.0 0.00 0.00 0.00 73 1017.1
20260902094233 59 238 1.0 1.0 0.00 0.00 0.00 72 1017.0
20260902093232 59 264 1.0 2.0 0.00 0.00 0.00 72 1017.0
20260902092231 60 188 0.0 1.0 0.00 0.00 0.00 71 1017.0
20260902091229 60 342 1.0 2.0 0.00 0.00 0.00 70 1017.0
20260902090228 60 64 1.0 1.0 0.00 0.00 0.00 70 1016.9
20260902085227 60 316 1.0 1.0 0.00 0.00 0.00 69 1017.0
20260902084225 60 285 1.0 1.0 0.00 0.00 0.00 68 1017.1
20260902083224 61 246 1.0 2.0 0.00 0.00 0.00 69 1017.1
20260902082222 61 29 1.0 2.0 0.00 0.00 0.00 68 1017.1
20260902081221 62 89 1.0 2.0 0.00 0.00 0.00 67 1017.1
20260902080220 62 164 1.0 2.0 0.00 0.00 0.00 66 1017.1
20260902075218 63 62 1.0 1.0 0.00 0.00 0.00 70 1017.0
20260902074217 63 96 0.0 1.0 0.00 0.00 0.00 68 1016.9
20260902073215 63 49 1.0 1.0 0.00 0.00 0.00 69 1016.9
20260902072214 63 317 1.0 1.0 0.00 0.00 0.00 65 1016.5
20260902071212 63 252 1.0 1.0 0.00 0.00 0.00 65 1016.4
20260902070211 64 1 1.0 2.0 0.00 0.00 0.00 64 1016.3
20260902065210 64 350 0.0 1.0 0.00 0.00 0.00 62 1016.3
20260902064208 64 317 1.0 1.0 0.00 0.00 0.00 62 1016.3
20260902063207 65 275 1.0 1.0 0.00 0.00 0.00 62 1016.4
20260902062206 66 358 1.0 1.0 0.00 0.00 0.00 60 1016.3
20260902061204 66 318 1.0 1.0 0.00 0.00 0.00 61 1016.2
20260902060203 67 261 0.0 1.0 0.00 0.00 0.00 59 1016.1
20260902055201 68 349 2.0 2.0 0.00 0.00 0.00 61 1016.2
20260902054200 68 24 3.0 4.0 0.00 0.00 0.00 61 1016.2
20260902053158 68 43 2.0 3.0 0.00 0.00 0.00 59 1016.2
20260902052156 68 30 3.0 3.0 0.00 0.00 0.00 59 1016.2
20260902051154 69 350 2.0 2.0 0.00 0.00 0.00 58 1016.2
20260902050152 69 4 1.0 2.0 0.00 0.00 0.00 57 1016.1
20260902045150 69 335 2.0 2.0 0.00 0.00 0.00 57 1016.1
20260902044149 70 21 3.0 3.0 0.00 0.00 0.00 57 1016.0
20260902043147 70 28 2.0 3.0 0.00 0.00 0.00 57 1015.9
20260902042145 70 5 3.0 3.0 0.00 0.00 0.00 56 1015.6
20260902041143 71 34 2.0 3.0 0.00 0.00 0.00 55 1015.5
20260902040141 71 33 2.0 2.0 0.00 0.00 0.00 51 1015.3
20260902035140 72 10 1.0 2.0 0.00 0.00 0.00 46 1015.0
20260902034138 72 305 1.0 1.0 0.00 0.00 0.00 47 1015.0
20260902033137 72 52 2.0 2.0 0.00 0.00 0.00 47 1014.8
20260902032135 73 340 2.0 3.0 0.00 0.00 0.00 47 1014.6
20260902031134 73 64 2.0 2.0 0.00 0.00 0.00 48 1014.5
20260902030132 74 31 2.0 2.0 0.00 0.00 0.00 48 1014.4
20260902025131 74 345 2.0 2.0 0.00 0.00 0.00 47 1014.4
20260902024129 75 21 4.0 5.0 0.00 0.00 0.00 47 1014.4
20260902023128 76 302 2.0 4.0 0.00 0.00 0.00 45 1014.1
20260902022126 77 313 4.0 6.0 0.00 0.00 0.00 43 1014.1
20260902021125 78 324 3.0 4.0 0.00 0.00 0.00 42 1014.1
20260902020123 79 313 2.0 4.0 0.00 0.00 0.00 41 1014.0
20260902015122 79 325 3.0 6.0 0.00 0.00 0.00 39 1013.9
20260902014121 80 308 5.0 9.0 0.00 0.00 0.00 36 1013.8
20260902013120 82 307 3.0 6.0 0.00 0.00 0.00 33 1013.7
20260902012117 82 327 5.0 7.0 0.00 0.00 0.00 33 1013.7
20260902011116 82 293 4.0 10.0 0.00 0.00 0.00 33 1013.6
20260902010115 83 296 6.0 10.0 0.00 0.00 0.00 31 1013.6
20260902005113 84 303 4.0 8.0 0.00 0.00 0.00 28 1013.5
20260902004112 84 321 7.0 11.0 0.00 0.00 0.00 27 1013.5
20260902003111 84 288 5.0 9.0 0.00 0.00 0.00 28 1013.6
20260902002109 84 311 7.0 11.0 0.00 0.00 0.00 28 1013.6
20260902001108 84 298 7.0 10.0 0.00 0.00 0.00 25 1013.5
20260902000106 85 301 7.0 11.0 0.00 0.00 0.00 23 1013.4
20260901235105 85 300 9.0 13.0 0.00 0.00 0.00 23 1013.4
20260901234103 85 320 5.0 8.0 0.00 0.00 0.00 23 1013.4
20260901233102 85 294 5.0 9.0 0.00 0.00 0.00 24 1013.4
20260901232101 85 297 5.0 9.0 0.00 0.00 0.00 22 1013.4
20260901231059 85 339 4.0 9.0 0.00 0.00 0.00 24 1013.5
20260901230057 85 280 9.0 13.0 0.00 0.00 0.00 24 1013.4
20260901225055 85 324 5.0 9.0 0.00 0.00 0.00 25 1013.4
20260901224054 86 270 10.0 13.0 0.00 0.00 0.00 28 1013.7
20260901223053 86 285 9.0 13.0 0.00 0.00 0.00 28 1013.7
20260901222051 86 277 9.0 13.0 0.00 0.00 0.00 28 1013.7
20260901221050 86 278 11.0 14.0 0.00 0.00 0.00 29 1013.8
20260901220048 87 289 9.0 13.0 0.00 0.00 0.00 27 1013.8
20260901215047 87 290 5.0 7.0 0.00 0.00 0.00 27 1013.9
20260901214045 86 313 4.0 6.0 0.00 0.00 0.00 27 1014.1
20260901213044 86 282 7.0 13.0 0.00 0.00 0.00 29 1014.3
20260901212043 86 279 8.0 12.0 0.00 0.00 0.00 29 1014.3
20260901211041 86 311 5.0 8.0 0.00 0.00 0.00 27 1014.3
20260901210040 85 284 8.0 10.0 0.00 0.00 0.00 30 1014.5
20260901205038 86 300 5.0 7.0 0.00 0.00 0.00 32 1014.6
20260901204036 85 321 5.0 7.0 0.00 0.00 0.00 32 1014.6
20260901203034 85 307 4.0 6.0 0.00 0.00 0.00 34 1014.7
20260901202033 85 10 2.0 4.0 0.00 0.00 0.00 34 1014.9
20260901201032 85 331 3.0 5.0 0.00 0.00 0.00 35 1015.1
20260901200030 83 25 3.0 4.0 0.00 0.00 0.00 37 1015.2
20260901195028 83 273 3.0 5.0 0.00 0.00 0.00 37 1015.3
20260901194027 82 29 4.0 6.0 0.00 0.00 0.00 35 1015.4
20260901193025 82 296 4.0 7.0 0.00 0.00 0.00 34 1015.5
20260901192023 82 23 2.0 3.0 0.00 0.00 0.00 31 1015.5
20260901191022 81 293 5.0 8.0 0.00 0.00 0.00 31 1015.5
20260901190020 80 309 3.0 6.0 0.00 0.00 0.00 38 1015.8
20260901185019 80 303 5.0 7.0 0.00 0.00 0.00 40 1015.8
20260901184017 79 291 5.0 6.0 0.00 0.00 0.00 44 1015.9
20260901183016 79 310 4.0 5.0 0.00 0.00 0.00 48 1016.1
20260901182014 80 295 4.0 6.0 0.00 0.00 0.00 49 1016.2
20260901181013 78 30 3.0 5.0 0.00 0.00 0.00 50 1016.2
20260901180011 78 333 3.0 6.0 0.00 0.00 0.00 51 1016.4
20260901175010 77 5 2.0 3.0 0.00 0.00 0.00 51 1016.4
20260901174008 76 116 1.0 2.0 0.00 0.00 0.00 51 1016.4
20260901173007 75 282 4.0 7.0 0.00 0.00 0.00 54 1016.4
20260901172006 75 332 1.0 2.0 0.00 0.00 0.00 54 1016.4
20260901171004 75 338 2.0 3.0 0.00 0.00 0.00 55 1016.4
20260901170003 74 184 0.0 1.0 0.00 0.00 0.00 55 1016.4
20260901165001 71 6 2.0 4.0 0.00 0.00 0.00 61 1016.5
20260901163959 71 311 3.0 4.0 0.00 0.00 0.00 64 1016.5
20260901162958 70 330 2.0 4.0 0.00 0.00 0.00 65 1016.4
20260901161957 70 275 4.0 5.0 0.00 0.00 0.00 68 1016.5
20260901160955 70 303 1.0 1.0 0.00 0.00 0.00 67 1016.5
20260901155954 69 285 2.0 3.0 0.00 0.00 0.00 68 1016.5
20260901154953 68 359 2.0 2.0 0.00 0.00 0.00 70 1016.5
20260901153951 68 295 3.0 3.0 0.00 0.00 0.00 72 1016.6
20260901152950 67 296 3.0 4.0 0.00 0.00 0.00 72 1016.5
20260901151949 67 295 2.0 3.0 0.00 0.00 0.00 72 1016.5
20260901150948 67 311 2.0 2.0 0.00 0.00 0.00 71 1016.4
20260901145947 67 277 2.0 3.0 0.00 0.00 0.00 70 1016.4
20260901144945 68 346 2.0 2.0 0.00 0.00 0.00 67 1016.4
20260901143944 66 252 0.0 1.0 0.00 0.00 0.00 67 1016.4
20260901142942 65 278 1.0 1.0 0.00 0.00 0.00 69 1016.3
20260901141941 63 0 1.0 2.0 0.00 0.00 0.00 72 1016.2
20260901140940 61 0 0.0 0.0 0.00 0.00 0.00 76 1016.2
20260901135938 59 349 0.0 1.0 0.00 0.00 0.00 78 1016.1
20260901134937 58 248 0.0 0.0 0.00 0.00 0.00 79 1016.0
20260901133935 58 201 1.0 2.0 0.00 0.00 0.00 79 1015.9
20260901132934 58 329 1.0 1.0 0.00 0.00 0.00 79 1015.8
20260901131933 59 62 0.0 1.0 0.00 0.00 0.00 78 1015.7
20260901130931 58 52 0.0 1.0 0.00 0.00 0.00 77 1015.6
20260901125930 59 333 0.0 2.0 0.00 0.00 0.00 77 1015.6
20260901124928 59 134 0.0 1.0 0.00 0.00 0.00 77 1015.6
20260901123927 59 112 0.0 1.0 0.00 0.00 0.00 77 1015.6
20260901122925 59 125 0.0 0.0 0.00 0.00 0.00 76 1015.6
20260901121924 60 214 1.0 1.0 0.00 0.00 0.00 76 1015.6
20260901120923 60 211 0.0 1.0 0.00 0.00 0.00 76 1015.6
20260901115921 60 85 0.0 0.0 0.00 0.00 0.00 75 1015.6
20260901114919 60 265 0.0 1.0 0.00 0.00 0.00 75 1015.6
20260901113918 60 150 1.0 2.0 0.00 0.00 0.00 75 1015.6
20260901112916 60 248 1.0 1.0 0.00 0.00 0.00 74 1015.6
20260901111914 60 63 0.0 1.0 0.00 0.00 0.00 74 1015.8
20260901110913 60 342 1.0 1.0 0.00 0.00 0.00 74 1015.8
20260901105911 61 144 1.0 2.0 0.00 0.00 0.00 72 1015.7